SB KEPS @ AMSAT $ORB14051.O Orbital Elements 14051.OSCAR
HR AMSAT ORBITAL ELEMENTS FOR OSCAR SATELLITES FROM WA5QGD FORT WORTH,TX February 20, 2014 BID: ORB14051.O TO ALL RADIO AMATEURS BT
Satellite: AO-07 Catalog number: 07530 Epoch time: 14050.90109368 Element set: 898 Inclination: 101.4605 deg RA of node: 036.6494 deg Eccentricity: 0.0012059 Arg of perigee: 162.3614 deg Mean anomaly: 252.1670 deg Mean motion: 12.53602189 rev/day Decay rate: -.00000000 rev/day^2 Epoch rev: 79682 Checksum: 278
Satellite: FO-29 Catalog number: 24278 Epoch time: 14050.88071880 Element set: 312 Inclination: 098.5221 deg RA of node: 080.8901 deg Eccentricity: 0.0349797 Arg of perigee: 241.8807 deg Mean anomaly: 246.2371 deg Mean motion: 13.53015483 rev/day Decay rate: 1.7e-07 rev/day^2 Epoch rev: 86480 Checksum: 315
Satellite: SO-33 Catalog number: 25509 Epoch time: 14051.51887247 Element set: 694 Inclination: 031.4336 deg RA of node: 101.3486 deg Eccentricity: 0.0350477 Arg of perigee: 172.3850 deg Mean anomaly: 331.2593 deg Mean motion: 14.29312759 rev/day Decay rate: 4.10e-06 rev/day^2 Epoch rev: 80044 Checksum: 294
Satellite: RS-22 Catalog number: 27939 Epoch time: 14051.71949829 Element set: 240 Inclination: 097.8008 deg RA of node: 231.7103 deg Eccentricity: 0.0013964 Arg of perigee: 116.3080 deg Mean anomaly: 243.9566 deg Mean motion: 14.64899621 rev/day Decay rate: 1.586e-05 rev/day^2 Epoch rev: 55567 Checksum: 333
Satellite: VO-52 Catalog number: 28650 Epoch time: 14050.85926674 Element set: 664 Inclination: 097.5624 deg RA of node: 061.7361 deg Eccentricity: 0.0025693 Arg of perigee: 181.2303 deg Mean anomaly: 178.8853 deg Mean motion: 14.84795139 rev/day Decay rate: 2.030e-05 rev/day^2 Epoch rev: 47581 Checksum: 331
Satellite: HO-68 Catalog number: 36122 Epoch time: 14051.74416876 Element set: 342 Inclination: 100.2685 deg RA of node: 107.0967 deg Eccentricity: 0.0007749 Arg of perigee: 144.4899 deg Mean anomaly: 215.6729 deg Mean motion: 13.16311926 rev/day Decay rate: -4.3e-07 rev/day^2 Epoch rev: 20111 Checksum: 298
Satellite: AO-73 Catalog number: 39444 Epoch time: 14051.23913148 Element set: 69 Inclination: 097.7876 deg RA of node: 125.8622 deg Eccentricity: 0.0061888 Arg of perigee: 262.7787 deg Mean anomaly: 096.6425 deg Mean motion: 14.77552356 rev/day Decay rate: 2.556e-05 rev/day^2 Epoch rev: 1219 Checksum: 348
/EX SB KEPS @ AMSAT $ORB14051.D Orbital Elements 14051.MICROS
HR AMSAT ORBITAL ELEMENTS FOR THE MICROSATS FROM WA5QGD FORT WORTH,TX February 20, 2014 BID: ORB14051.D TO ALL RADIO AMATEURS BT
Satellite: UO-11 Catalog number: 14781 Epoch time: 14051.72654140 Element set: 421 Inclination: 097.8676 deg RA of node: 114.0526 deg Eccentricity: 0.0008840 Arg of perigee: 191.3604 deg Mean anomaly: 168.7410 deg Mean motion: 14.81316710 rev/day Decay rate: 9.07e-06 rev/day^2 Epoch rev: 61072 Checksum: 277
Satellite: AO-16 Catalog number: 20439 Epoch time: 14051.78865841 Element set: 960 Inclination: 098.4980 deg RA of node: 351.3778 deg Eccentricity: 0.0011827 Arg of perigee: 139.8129 deg Mean anomaly: 272.6512 deg Mean motion: 14.32286162 rev/day Decay rate: 1.96e-06 rev/day^2 Epoch rev: 25782 Checksum: 332
Satellite: LO-19 Catalog number: 20442 Epoch time: 14051.78091710 Element set: 898 Inclination: 098.4685 deg RA of node: 352.3789 deg Eccentricity: 0.0012925 Arg of perigee: 130.4157 deg Mean anomaly: 229.8156 deg Mean motion: 14.32491538 rev/day Decay rate: 1.87e-06 rev/day^2 Epoch rev: 25802 Checksum: 324
Satellite: AO-27 Catalog number: 22825 Epoch time: 14051.80646140 Element set: 601 Inclination: 098.6500 deg RA of node: 358.5893 deg Eccentricity: 0.0007271 Arg of perigee: 279.2270 deg Mean anomaly: 141.2228 deg Mean motion: 14.29659645 rev/day Decay rate: 1.69e-06 rev/day^2 Epoch rev: 6415 Checksum: 303
Satellite: IO-26 Catalog number: 22826 Epoch time: 14050.90462118 Element set: 358 Inclination: 098.6440 deg RA of node: 357.9332 deg Eccentricity: 0.0007798 Arg of perigee: 273.9457 deg Mean anomaly: 086.0834 deg Mean motion: 14.29952811 rev/day Decay rate: 2.02e-06 rev/day^2 Epoch rev: 6415 Checksum: 317
Satellite: GO-32 Catalog number: 25397 Epoch time: 14050.97920383 Element set: 281 Inclination: 098.4535 deg RA of node: 013.4362 deg Eccentricity: 0.0000262 Arg of perigee: 006.3452 deg Mean anomaly: 035.4068 deg Mean motion: 14.23405131 rev/day Decay rate: 1.06e-06 rev/day^2 Epoch rev: 81119 Checksum: 263
Satellite: NO-44 Catalog number: 26931 Epoch time: 14050.20189978 Element set: 539 Inclination: 067.0540 deg RA of node: 342.6873 deg Eccentricity: 0.0005522 Arg of perigee: 271.3541 deg Mean anomaly: 088.6927 deg Mean motion: 14.30043569 rev/day Decay rate: 1.36e-06 rev/day^2 Epoch rev: 64673 Checksum: 313
Satellite: SO-50 Catalog number: 27607 Epoch time: 14051.85613968 Element set: 309 Inclination: 064.5559 deg RA of node: 226.8803 deg Eccentricity: 0.0035257 Arg of perigee: 053.6735 deg Mean anomaly: 054.6481 deg Mean motion: 14.73427695 rev/day Decay rate: 1.132e-05 rev/day^2 Epoch rev: 60034 Checksum: 315
Satellite: CO-55 Catalog number: 27844 Epoch time: 14050.87386929 Element set: 860 Inclination: 098.7006 deg RA of node: 061.3350 deg Eccentricity: 0.0008747 Arg of perigee: 250.6856 deg Mean anomaly: 229.2295 deg Mean motion: 14.21392595 rev/day Decay rate: 3.57e-06 rev/day^2 Epoch rev: 55191 Checksum: 335
Satellite: CO-57 Catalog number: 27848 Epoch time: 14051.62769264 Element set: 802 Inclination: 098.7096 deg RA of node: 061.7248 deg Eccentricity: 0.0008643 Arg of perigee: 255.1795 deg Mean anomaly: 223.8156 deg Mean motion: 14.21096484 rev/day Decay rate: 3.04e-06 rev/day^2 Epoch rev: 55194 Checksum: 333
Satellite: AO-51 Catalog number: 28375 Epoch time: 14051.10698214 Element set: 776 Inclination: 098.2374 deg RA of node: 002.0928 deg Eccentricity: 0.0082700 Arg of perigee: 347.1829 deg Mean anomaly: 075.6517 deg Mean motion: 14.41281586 rev/day Decay rate: 4.34e-06 rev/day^2 Epoch rev: 50704 Checksum: 306
Satellite: CP3 Catalog number: 31129 Epoch time: 14050.53994466 Element set: 678 Inclination: 097.9230 deg RA of node: 034.5877 deg Eccentricity: 0.0099508 Arg of perigee: 018.2829 deg Mean anomaly: 097.4021 deg Mean motion: 14.54254212 rev/day Decay rate: 1.957e-05 rev/day^2 Epoch rev: 36293 Checksum: 327
Satellite: CO-65 Catalog number: 32785 Epoch time: 14051.12629959 Element set: 873 Inclination: 097.7160 deg RA of node: 106.2092 deg Eccentricity: 0.0013590 Arg of perigee: 208.3955 deg Mean anomaly: 204.2971 deg Mean motion: 14.84715299 rev/day Decay rate: 2.255e-05 rev/day^2 Epoch rev: 31465 Checksum: 325
Satellite: PRISM Catalog number: 33493 Epoch time: 14051.88069592 Element set: 661 Inclination: 098.2399 deg RA of node: 222.7428 deg Eccentricity: 0.0018649 Arg of perigee: 103.6706 deg Mean anomaly: 256.6606 deg Mean motion: 14.88012716 rev/day Decay rate: 7.831e-05 rev/day^2 Epoch rev: 27487 Checksum: 335
Satellite: SOHLA-1 Catalog number: 33496 Epoch time: 14051.85866522 Element set: 279 Inclination: 098.1544 deg RA of node: 172.6264 deg Eccentricity: 0.0005463 Arg of perigee: 244.8589 deg Mean anomaly: 227.5328 deg Mean motion: 14.70598001 rev/day Decay rate: 7.02e-06 rev/day^2 Epoch rev: 27241 Checksum: 313
Satellite: TISAT-1 Catalog number: 36799 Epoch time: 14051.80502526 Element set: 926 Inclination: 098.0192 deg RA of node: 143.0018 deg Eccentricity: 0.0013360 Arg of perigee: 345.4219 deg Mean anomaly: 014.6573 deg Mean motion: 14.84676019 rev/day Decay rate: 4.942e-05 rev/day^2 Epoch rev: 19544 Checksum: 301
Satellite: STUDSAT Catalog number: 36801 Epoch time: 14051.90002720 Element set: 774 Inclination: 098.0338 deg RA of node: 149.0930 deg Eccentricity: 0.0009579 Arg of perigee: 314.9833 deg Mean anomaly: 182.0878 deg Mean motion: 14.92885750 rev/day Decay rate: 1.6706e-04 rev/day^2 Epoch rev: 19575 Checksum: 322
Satellite: ALMASAT-1 Catalog number: 38078 Epoch time: 14051.88325300 Element set: 939 Inclination: 069.4743 deg RA of node: 337.8105 deg Eccentricity: 0.0637138 Arg of perigee: 185.7882 deg Mean anomaly: 237.4456 deg Mean motion: 14.39567039 rev/day Decay rate: 3.6327e-04 rev/day^2 Epoch rev: 10483 Checksum: 338
Satellite: XATCOBEO Catalog number: 38082 Epoch time: 14051.81273615 Element set: 966 Inclination: 069.4544 deg RA of node: 272.4995 deg Eccentricity: 0.0392531 Arg of perigee: 150.4575 deg Mean anomaly: 340.5984 deg Mean motion: 15.02398473 rev/day Decay rate: 1.80541e-03 rev/day^2 Epoch rev: 10660 Checksum: 319
Satellite: CUBEBUG-1 Catalog number: 39153 Epoch time: 14051.87420893 Element set: 872 Inclination: 098.0496 deg RA of node: 132.4103 deg Eccentricity: 0.0018538 Arg of perigee: 007.9350 deg Mean anomaly: 352.2147 deg Mean motion: 14.77171966 rev/day Decay rate: 2.307e-05 rev/day^2 Epoch rev: 4438 Checksum: 303
Satellite: ESTCUBE-1 Catalog number: 39161 Epoch time: 14051.88068099 Element set: 843 Inclination: 098.1043 deg RA of node: 133.6268 deg Eccentricity: 0.0010818 Arg of perigee: 053.5541 deg Mean anomaly: 306.6619 deg Mean motion: 14.69571046 rev/day Decay rate: 1.984e-05 rev/day^2 Epoch rev: 4251 Checksum: 307
/EX SB KEPS @ AMSAT $ORB14051.W Orbital Elements 14051.WEATHER
HR AMSAT ORBITAL ELEMENTS FOR WEATHER SATELLITES FROM WA5QGD FORT WORTH,TX February 20, 2014 BID: ORB14051.W TO ALL RADIO AMATEURS BT
Satellite: NOAA-10 Catalog number: 16969 Epoch time: 14051.57515873 Element set: 677 Inclination: 098.5238 deg RA of node: 078.7033 deg Eccentricity: 0.0011543 Arg of perigee: 232.9183 deg Mean anomaly: 238.6027 deg Mean motion: 14.27718195 rev/day Decay rate: 1.34e-06 rev/day^2 Epoch rev: 42738 Checksum: 324
Satellite: NOAA-11 Catalog number: 19531 Epoch time: 14051.34610744 Element set: 700 Inclination: 098.6887 deg RA of node: 133.3012 deg Eccentricity: 0.0010147 Arg of perigee: 270.9181 deg Mean anomaly: 089.0830 deg Mean motion: 14.15057462 rev/day Decay rate: 5.7e-07 rev/day^2 Epoch rev: 31121 Checksum: 262
